Weather History for KCMX - August, 2013

Change the Weather History Date:

Saturday, August 31, 2013

  Actual Average Record
Temperature  
Mean Temperature 66 °F -  
Max Temperature 77 °F 69 °F 93 °F (1961)
Min Temperature 57 °F 52 °F 38 °F (1970)
Cooling Degree Days 1    
Growing Degree Days 16 (Base 50)    
Moisture  
Dew Point 59 °F    
Average Humidity 87    
Maximum Humidity 100    
Minimum Humidity 62    
Precipitation  
Precipitation 0.00 in - - ()
Sea Level Pressure  
Sea Level Pressure 29.87 in    
Wind  
Wind Speed 3 mph (SSE)    
Max Wind Speed 9 mph    
Max Gust Speed -    
Visibility 6 miles    
Events Fog , Rain    
Averages and records for this station are not official NWS values.
T = Trace of Precipitation, MM = Missing Value Source: NWS Daily Summary

Daily Weather History Graph

Daily Weather History Graph

Search for Another Location

Airport or City:

Trip Planner

Search our weather history database for the weather conditions in past years. The results will help you decide how hot, cold, wet, or windy it might be!

Date:

Astronomy

Aug. 31, 2013 Rise Set
Actual Time 7:12 AM EDT 8:35 PM EDT
Civil Twilight 6:40 AM EDT 9:06 PM EDT
Nautical Twilight 6:01 AM EDT 9:45 PM EDT
Astronomical Twilight 5:20 AM EDT 10:26 PM EDT
Moon 2:29 AM EDT (8/31) 5:43 PM EDT (8/31)
Length of Visible Light 14h 26m
Length of Day
13h 23m
Waning Crescent, 21% of the Moon is Illuminated
Aug 31
Waning Crescent
Sep 5
New
Sep 12
First Quarter
Sep 19
Full
Sep 26
Last Quarter

Hourly Weather History & Observations

Time (EDT) Temp. Dew Point Humidity Pressure Visibility Wind Dir Wind Speed Gust Speed Precip Events Conditions
12:10 AM 59.0 °F 55.4 °F 88% 29.96 in 10.0 mi ESE 3.5 mph - N/A   Scattered Clouds
12:21 AM 57.2 °F 55.4 °F 94% 29.95 in 10.0 mi ESE 4.6 mph - N/A   Mostly Cloudy
12:53 AM 59.0 °F 55.9 °F 90% 29.96 in 10.0 mi East 4.6 mph - N/A   Overcast
1:53 AM 57.9 °F 55.9 °F 93% 29.94 in 10.0 mi Calm Calm - N/A   Overcast
2:53 AM 59.0 °F 55.9 °F 90% 29.93 in 10.0 mi ESE 3.5 mph - N/A   Overcast
3:01 AM 59.0 °F 55.4 °F 88% 29.93 in 10.0 mi Calm Calm - N/A   Overcast
3:53 AM 59.0 °F 55.9 °F 90% 29.92 in 10.0 mi SE 3.5 mph - N/A   Overcast
4:00 AM 59.0 °F 55.4 °F 88% 29.93 in 10.0 mi Calm Calm - N/A   Overcast
4:53 AM 59.0 °F 57.0 °F 93% 29.91 in 9.0 mi SE 3.5 mph - N/A   Overcast
5:43 AM 59.0 °F 57.2 °F 94% 29.91 in 1.8 mi Calm Calm - N/A   Overcast
5:53 AM 57.9 °F 57.0 °F 97% 29.90 in 0.5 mi SSW 4.6 mph - N/A Fog Fog
6:02 AM 57.2 °F 57.2 °F 100% 29.90 in 0.2 mi Calm Calm - N/A Fog Fog
6:53 AM 59.0 °F 57.0 °F 93% 29.89 in 0.2 mi South 3.5 mph - N/A Fog Fog
7:40 AM 57.2 °F 57.2 °F 100% 29.90 in 0.2 mi Calm Calm - N/A Fog Fog
7:53 AM 59.0 °F 57.9 °F 96% 29.91 in 0.2 mi Calm Calm - N/A Fog Fog
8:53 AM 59.0 °F 57.9 °F 96% 29.91 in 0.2 mi Calm Calm - N/A Fog Fog
9:15 AM 59.0 °F 57.2 °F 94% 29.90 in 0.2 mi SSW 4.6 mph - N/A Fog Fog
9:46 AM 59.0 °F 57.2 °F 94% 29.89 in 0.5 mi SSW 4.6 mph - N/A Fog Fog
9:53 AM 59.0 °F 57.9 °F 96% 29.90 in 0.2 mi SW 3.5 mph - N/A Fog Fog
10:00 AM 59.0 °F 57.2 °F 94% 29.90 in 0.5 mi Calm Calm - N/A Fog Fog
10:07 AM 60.8 °F 59.0 °F 94% 29.90 in 2.5 mi Calm Calm - N/A   Overcast
10:14 AM 60.8 °F 57.2 °F 88% 29.89 in 4.0 mi SSW 3.5 mph - N/A   Overcast
10:41 AM 60.8 °F 59.0 °F 94% 29.89 in 10.0 mi SSW 3.5 mph - N/A   Scattered Clouds
10:53 AM 62.1 °F 59.0 °F 90% 29.88 in 10.0 mi South 5.8 mph - N/A   Clear
11:53 AM 71.1 °F 61.0 °F 70% 29.86 in 10.0 mi Variable 5.8 mph - N/A   Partly Cloudy
12:53 PM 73.0 °F 61.0 °F 66% 29.85 in 10.0 mi Variable 5.8 mph - N/A   Clear
1:53 PM 73.9 °F 61.0 °F 64% 29.83 in 10.0 mi WNW 9.2 mph - N/A   Clear
2:53 PM 75.9 °F 62.1 °F 62% 29.81 in 10.0 mi SW 6.9 mph - N/A   Clear
3:53 PM 75.9 °F 62.1 °F 62% 29.80 in 10.0 mi South 5.8 mph - N/A   Clear
4:53 PM 75.9 °F 64.0 °F 67% 29.80 in 10.0 mi ESE 3.5 mph - N/A   Clear
5:53 PM 73.9 °F 64.9 °F 73% 29.79 in 10.0 mi East 6.9 mph - N/A   Clear
6:53 PM 71.1 °F 63.0 °F 75% 29.77 in 10.0 mi East 5.8 mph - N/A   Clear
7:53 PM 66.0 °F 62.1 °F 87% 29.77 in 10.0 mi East 4.6 mph - N/A   Clear
8:53 PM 64.9 °F 61.0 °F 87% 29.78 in 9.0 mi ESE 3.5 mph - N/A   Scattered Clouds
9:53 PM 64.0 °F 61.0 °F 90% 29.78 in 7.0 mi Calm Calm - N/A   Clear
10:53 PM 64.0 °F 61.0 °F 90% 29.76 in 7.0 mi Calm Calm - N/A   Clear
11:42 PM 64.4 °F 62.6 °F 94% 29.75 in 4.0 mi Variable 3.5 mph - N/A   Mostly Cloudy
11:51 PM 64.4 °F 62.6 °F 94% 29.76 in 4.0 mi Calm Calm - N/A   Mostly Cloudy
11:53 PM 64.0 °F 62.1 °F 93% 29.75 in 4.0 mi Calm Calm - 0.00 in Rain Light Rain